sat.trackr.live / text

‹ back to catalog

STARLINK-36293

NORAD 68515 · 2026-068H

PAYLOAD ACTIVE UNKNOWN

§ Identity

Operator
Country
US
Launch date
2026-03-30
Launch site
AFETR
Launch vehicle
Mass (kg)
RCS (m²)

Purposes: comms

External: N2YO · Heavens-Above · Gunter

§ Orbital elements

Epoch: 2026-05-25T03:20:43.910304Z

Period
93.85 min
Inclination
53.1585°
Eccentricity
0.0001057
Mean motion
15.34406368 rev/d
Perigee alt
462.0 km
Apogee alt
463.4 km
Semi-major
6,840.8 km
B*
7.0002e-4
RAAN
133.1795°
Arg perigee
101.8421°
Mean anomaly
258.2700°
Rev number
866

§ Raw data

STARLINK-362931 68515U 26068H   26145.13939711  .00023354  00000+0  70002-3 0  99972 68515  53.1585 133.1795 0001057 101.8421 258.2700 15.34406368  8667

JSON: /api/v1/satellites/68515 · /tle

For live sub-satellite position, see the globe view (requires WebGL).

§ Visibility from observer

Set your observer location to see the next 7 days of passes ≥ 10°. The values pass through the URL so the page stays shareable.

No JS? Fill the form by hand. The geolocation button needs JavaScript.